Weather reports worldwide

Advertisment
Feldberg/Mecklenburg, Germany (10282): temperature & dewpoint: 16.02.2019 22:00:00 - 22.02.2019 22:00:00 (CET)Feldberg/Mecklenburg, Germany (10282): temperature 5cm & temperature -5cm: 16.02.2019 22:00:00 - 22.02.2019 22:00:00 (CET)Feldberg/Mecklenburg, Germany (10282): temperature -20cm & temperature -100cm: 16.02.2019 22:00:00 - 22.02.2019 22:00:00 (CET)Feldberg/Mecklenburg, Germany (10282): wind speed & gusts: 16.02.2019 22:00:00 - 22.02.2019 22:00:00 (CET)Feldberg/Mecklenburg, Germany (10282): wind direction: 16.02.2019 22:00:00 - 22.02.2019 22:00:00 (CET)Feldberg/Mecklenburg, Germany (10282): reduced air pressure: 16.02.2019 22:00:00 - 22.02.2019 22:00:00 (CET)Feldberg/Mecklenburg, Germany (10282): visibility: 16.02.2019 22:00:00 - 22.02.2019 22:00:00 (CET)Feldberg/Mecklenburg, Germany (10282): sunshine duration: 16.02.2019 22:00:00 - 22.02.2019 22:00:00 (CET)Feldberg/Mecklenburg, Germany (10282): precipitation: 16.02.2019 22:00:00 - 22.02.2019 22:00:00 (CET)
Date & Time tt [°C] td [°C] tt 5cm [°C] tt -5cm [°C] tt -20cm [°C] tt -100cm [°C] ff [km/h] ff [kn] fx [km/h] fx [kn] dd ppp [hPa] vv [km] sd [min] rr [mm]
22.02.2019 22:00:00 -1,9 -6,8 -5,2 1,1 4,2 4,6 4 2 13 7 SE 1044,8 31 0 0,0
22.02.2019 21:00:00 -2,3 -5,8 -5,3 1,4 4,5 4,6 5 3 10 5 ESE 1044,3 41 0 0,0
22.02.2019 20:00:00 -2,0 -5,2 -5,0 1,7 4,9 4,6 5 3 8 4 ESE 1044,2 48 0 0,0
22.02.2019 19:00:00 -1,5 -4,6 -3,3 2,0 5,3 4,6 4 2 9 5 E 1043,7 39 0 0,0
22.02.2019 18:00:00 0,2 -5,9 -3,2 3,3 5,6 4,6 6 3 13 7 E 1043,1 57 9 0,0
22.02.2019 17:00:00 1,9 -6,6 1,6 5,0 5,7 4,6 11 6 22 12 E 1042,2 55 60 0,0
22.02.2019 16:00:00 2,7 -6,3 4,4 6,7 5,6 4,6 13 7 24 13 E 1041,6 47 60 0,0
22.02.2019 15:00:00 3,0 -4,8 5,2 7,6 5,3 4,6 16 9 27 15 ENE 1041,1 32 60 0,0
22.02.2019 14:00:00 2,9 -5,0 5,2 7,6 5,0 4,6 16 9 28 15 E 1041,0 29 60 0,0
22.02.2019 13:00:00 2,1 -5,5 4,9 6,9 4,7 4,6 19 10 31 17 ENE 1040,6 36 60 0,0
22.02.2019 12:00:00 1,8 -4,5 4,8 5,8 4,5 4,6 19 10 33 18 ENE 1040,0 35 60 0,0
22.02.2019 11:00:00 1,2 -4,7 3,6 4,1 4,4 4,5 20 11 33 18 ENE 1039,5 39 24 0,0
22.02.2019 10:00:00 0,8 -2,0 1,5 3,3 4,5 4,5 16 9 34 18 ENE 1038,5 27 32 0,0
22.02.2019 09:00:00 0,2 -2,3 0,4 2,4 4,8 4,5 19 10 30 16 ENE 1037,4 35 0 0,0
22.02.2019 08:00:00 0,0 -1,5 -0,1 2,7 5,1 4,5 19 11 32 17 ENE 1035,7 34 0 0,0
22.02.2019 07:00:00 0,4 -1,7 0,1 3,1 5,3 4,5 19 11 36 20 NNE 1033,9 45 0 0,0
22.02.2019 06:00:00 1,1 -0,5 0,9 3,6 5,6 4,5 19 11 36 19 NE 1032,5 43 0 0,0
22.02.2019 05:00:00 1,3 0,2 1,3 4,2 5,8 4,5 24 13 37 20 NNE 1030,6 29 0 0,0
22.02.2019 04:00:00 2,0 1,2 2,1 5,0 6,0 4,5 25 14 37 20 NNE 1029,2 21 0 0,0
22.02.2019 03:00:00 3,4 2,6 3,3 5,9 6,1 4,5 23 12 38 20 NNE 1027,9 25 0 0,2
22.02.2019 02:00:00 6,8 6,3 6,5 6,5 6,1 4,5 18 10 28 15 N 1025,8 6 0 0,4
22.02.2019 01:00:00 6,9 6,5 6,7 6,6 6,2 4,4 15 8 29 16 NNW 1024,7 4,0 0 0,8
22.02.2019 00:00:00 7,1 6,7 6,9 6,8 6,2 4,4 16 9 39 21 NW 1024,1 3,2 0 0,4
21.02.2019 23:00:00 7,4 7,0 7,1 6,9 6,2 4,4 16 8 28 15 NW 1023,5 5 0 1,2
21.02.2019 22:00:00 7,5 7,0 7,3 6,9 6,2 4,4 18 10 31 17 WNW 1022,8 2,6 0 0,1
21.02.2019 21:00:00 7,5 7,0 7,3 7,0 6,3 4,4 19 10 35 19 WNW 1022,2 2,5 0 0,4
21.02.2019 20:00:00 7,7 7,0 7,3 7,1 6,3 4,4 21 11 36 20 W 1022,0 3,3 0 0,0
21.02.2019 19:00:00 7,9 7,2 7,5 7,2 6,3 4,4 22 12 31 17 W 1022,0 2,9 0 0,5
21.02.2019 18:00:00 7,9 7,2 7,5 7,4 6,3 4,4 14 8 26 14 W 1021,6 4,8 0 0,2
21.02.2019 17:00:00 7,8 7,0 7,6 7,6 6,3 4,4 12 6 19 10 W 1021,2 4,6 0 0,3
21.02.2019 16:00:00 7,8 7,0 7,6 7,9 6,2 4,4 14 7 21 11 W 1021,4 4,3 0 0,3
21.02.2019 15:00:00 7,8 6,9 7,6 8,3 6,0 4,4 16 9 33 18 W 1021,2 4,5 0 0,3
21.02.2019 14:00:00 8,6 5,5 8,8 8,5 5,7 4,4 22 12 35 19 W 1020,9 9 0 0,0
21.02.2019 13:00:00 8,8 5,3 9,0 9,1 5,3 4,4 20 11 39 21 W 1021,1 10 27 0,0
21.02.2019 12:00:00 8,4 5,3 9,3 8,3 5,0 4,4 22 12 37 20 WSW 1021,3 8 57 0,0
21.02.2019 11:00:00 7,0 5,5 8,0 6,2 4,8 4,3 23 12 34 18 WSW 1021,7 5 4 0,1
21.02.2019 10:00:00 6,0 5,0 5,8 5,4 4,8 4,3 19 11 30 16 WSW 1022,0 3,9 0 0,3
21.02.2019 09:00:00 5,9 4,6 5,5 5,0 4,8 4,3 19 10 25 14 WSW 1021,9 4,6 0 0,6
21.02.2019 08:00:00 5,9 4,2 5,2 4,8 4,8 4,3 17 9 25 13 WSW 1021,6 6 0 0,0
21.02.2019 07:00:00 5,8 4,1 5,0 4,7 4,8 4,3 15 8 26 14 WSW 1021,6 6 0 0,3
21.02.2019 06:00:00 6,4 3,4 5,8 4,8 4,8 4,3 16 9 27 15 WSW 1021,7 10 0 0,0
21.02.2019 05:00:00 6,8 2,9 6,3 4,8 4,9 4,3 18 10 27 15 WSW 1021,8 13 0 0,0
21.02.2019 04:00:00 6,7 3,2 6,0 4,8 4,9 4,3 17 9 23 12 WSW 1021,9 12 0 0,0
21.02.2019 03:00:00 6,5 3,1 6,0 4,8 4,9 4,3 14 8 19 10 WSW 1022,0 16 0 0,0
21.02.2019 02:00:00 6,0 3,5 5,2 4,8 5,0 4,3 9 5 21 11 WSW 1022,4 18 0 0,0
21.02.2019 01:00:00 6,5 3,0 5,9 4,8 5,1 4,3 14 8 21 12 WSW 1022,5 18 0 0,0
21.02.2019 00:00:00 6,3 3,0 5,8 4,8 5,2 4,3 13 7 17 9 WSW 1022,5 19 0 0,0
20.02.2019 23:00:00 6,5 3,2 5,7 4,9 5,3 4,3 12 7 19 11 WSW 1022,3 16 0 0,0
20.02.2019 22:00:00 6,4 3,4 5,5 5,1 5,5 4,3 11 6 16 9 WSW 1022,3 14 0 0,0
20.02.2019 21:00:00 6,4 3,8 5,6 5,3 5,6 4,3 10 6 16 9 WSW 1022,3 14 0 0,0
20.02.2019 20:00:00 6,5 4,0 5,7 5,8 5,7 4,3 9 5 14 7 WSW 1022,0 17 0 0,0
20.02.2019 19:00:00 7,2 4,1 6,6 6,3 5,8 4,3 9 5 14 7 WSW 1021,8 19 0 0,0
20.02.2019 18:00:00 7,2 4,3 6,4 6,7 5,8 4,3 9 5 30 16 W 1021,3 18 0 0,0
20.02.2019 17:00:00 8,1 4,1 7,8 7,3 5,8 4,3 14 7 20 11 W 1020,8 18 0 0,0
20.02.2019 16:00:00 8,4 4,1 8,2 8,0 5,6 4,3 17 9 31 17 W 1020,5 18 0 0,0
20.02.2019 15:00:00 8,7 3,4 9,2 8,7 5,3 4,3 22 12 35 19 WSW 1020,2 20 14 0,0
20.02.2019 14:00:00 9,1 3,0 10,4 8,9 4,9 4,3 26 14 41 22 W 1020,0 18 28 0,0
20.02.2019 13:00:00 8,9 2,0 10,8 9,3 4,4 4,3 24 13 34 19 W 1020,0 23 44 0,0
20.02.2019 12:00:00 8,4 2,9 10,4 7,9 4,0 4,3 24 13 37 20 W 1019,9 19 42 0,0
20.02.2019 11:00:00 7,1 3,9 7,6 5,8 3,7 4,3 20 11 35 19 W 1019,5 16 1 0,0
20.02.2019 10:00:00 6,0 3,5 5,9 4,6 3,5 4,3 24 13 35 19 W 1019,0 12 0 0,0
20.02.2019 09:00:00 5,5 3,6 5,2 3,9 3,4 4,3 20 11 30 16 WSW 1018,2 11 0 0,0
20.02.2019 08:00:00 5,0 3,7 4,4 3,3 3,4 4,3 16 8 25 14 WSW 1017,6 9 0 0,0
20.02.2019 07:00:00 4,9 3,8 4,2 3,2 3,4 4,3 16 9 27 15 W 1017,2 9 0 0,0
20.02.2019 06:00:00 4,8 3,9 4,1 3,2 3,3 4,3 17 9 28 15 W 1016,9 9 0 0,0
20.02.2019 05:00:00 4,8 3,8 4,2 3,0 3,3 4,3 19 10 30 16 WSW 1016,5 8 0 0,5
20.02.2019 04:00:00 4,5 3,3 3,4 2,7 3,4 4,3 18 10 31 17 W 1016,3 12 0 0,0
20.02.2019 03:00:00 4,9 3,1 4,0 2,3 3,5 4,3 17 9 33 18 W 1016,2 20 0 0,0
20.02.2019 02:00:00 3,5 2,7 1,9 2,2 3,7 4,3 11 6 19 11 WSW 1016,0 11 0 0,0
20.02.2019 01:00:00 3,9 3,0 2,7 2,7 3,8 4,3 14 8 21 11 WSW 1015,9 11 0 0,0
20.02.2019 00:00:00 3,7 3,0 2,7 2,9 3,9 4,3 13 7 19 10 WSW 1015,4 10 0 0,0
19.02.2019 23:00:00 4,3 3,3 3,7 3,1 4,0 4,3 14 8 32 18 WSW 1015,2 15 0 0,0
19.02.2019 22:00:00 4,4 3,0 3,1 3,2 4,1 4,3 22 12 31 17 W 1014,8 20 0 0,0
19.02.2019 21:00:00 4,4 3,0 3,0 3,8 4,2 4,3 21 12 36 19 W 1014,6 35 0 0,0
19.02.2019 20:00:00 5,1 4,2 4,5 4,5 4,2 4,3 16 8 53 28 WSW 1014,5 15 0 0,3
19.02.2019 19:00:00 5,7 4,0 4,9 4,8 4,2 4,3 23 13 36 19 W 1014,2 4,1 0 0,6
19.02.2019 18:00:00 7,0 2,8 6,4 4,9 4,2 4,3 16 9 44 24 SW 1013,3 26 0 0,0
19.02.2019 17:00:00 7,8 2,3 7,0 5,4 4,0 4,3 21 12 34 19 WSW 1013,2 22 0 0,0
19.02.2019 16:00:00 8,1 2,2 7,7 5,9 3,8 4,3 26 14 39 21 WSW 1013,1 28 31 0,0
19.02.2019 15:00:00 8,3 3,1 9,3 5,6 3,5 4,3 23 12 35 19 WSW 1013,2 20 8 0,0
19.02.2019 14:00:00 7,4 3,0 7,2 5,5 3,1 4,3 26 14 40 21 W 1013,6 14 0 0,0
19.02.2019 13:00:00 7,2 3,5 7,7 5,0 2,8 4,3 27 15 37 20 WSW 1013,5 11 0 0,0
19.02.2019 12:00:00 6,4 3,5 6,6 4,0 2,5 4,3 23 12 32 18 WSW 1013,6 10 0 0,0
19.02.2019 11:00:00 5,6 3,1 5,6 2,6 2,3 4,3 18 10 25 14 WSW 1013,7 9 0 0,1
19.02.2019 10:00:00 4,9 1,9 4,5 0,8 2,4 4,3 16 9 23 12 WSW 1013,4 10 0 0,0
19.02.2019 09:00:00 3,4 0,7 2,8 0,6 2,5 4,2 15 8 22 12 WSW 1013,0 12 0 0,0
19.02.2019 08:00:00 2,9 0,2 1,7 0,6 2,6 4,2 16 9 22 12 WSW 1012,5 14 0 0,0
19.02.2019 07:00:00 2,6 -0,1 1,1 0,7 2,7 4,2 15 8 20 11 SW 1012,0 14 0 0,0
19.02.2019 06:00:00 2,1 -0,3 -0,1 0,7 2,8 4,2 10 6 15 8 SW 1012,0 13 0 0,0
19.02.2019 05:00:00 2,1 -0,3 -0,3 0,8 3,0 4,2 11 6 15 8 SW 1012,3 13 0 0,0
19.02.2019 04:00:00 2,5 -0,1 -0,1 0,9 3,1 4,2 8 4 12 7 SW 1012,4 13 0 0,0
19.02.2019 03:00:00 2,7 -0,1 -1,3 1,0 3,3 4,2 8 4 12 7 SW 1012,9 14 0 0,0
19.02.2019 02:00:00 2,7 -0,2 -0,3 1,1 3,5 4,2 9 5 11 6 SW 1013,6 14 0 0,0
19.02.2019 01:00:00 3,1 -0,1 -0,9 1,2 3,8 4,2 6 4 11 6 SW 1014,2 14 0 0,0
19.02.2019 00:00:00 3,5 0,2 -0,8 1,3 4,1 4,2 5 3 10 5 WSW 1014,6 15 0 0,0
18.02.2019 23:00:00 2,2 0,1 -2,7 1,6 4,5 4,2 2 1 5 3 S 1015,2 13 0 0,0
18.02.2019 22:00:00 2,2 0,2 -2,0 2,3 4,9 4,2 2 1 4 2 SE 1015,8 13 0 0,0
18.02.2019 21:00:00 2,4 0,4 -1,5 3,1 5,3 4,2 0 0 6 4 N 1016,2 13 0 0,0
18.02.2019 20:00:00 3,2 1,2 -1,1 4,0 5,6 4,2 0 0 5 3 N 1016,4 13 0 0,0
18.02.2019 19:00:00 3,8 1,4 0,0 5,2 5,9 4,2 0 0 4 2 N 1016,7 12 0 0,0
18.02.2019 18:00:00 7,0 2,2 1,1 6,8 6,0 4,2 3 1 7 4 S 1016,9 18 3 0,0
18.02.2019 17:00:00 10,7 3,3 7,1 8,7 5,8 4,2 7 4 15 8 S 1016,9 20 60 0,0
18.02.2019 16:00:00 12,9 2,7 13,3 10,2 5,4 4,2 11 6 17 9 SW 1017,3 18 60 0,0
18.02.2019 15:00:00 13,6 2,6 14,8 10,8 4,7 4,2 12 6 17 9 SW 1017,5 18 60 0,0
18.02.2019 14:00:00 13,1 2,4 14,5 10,4 3,9 4,2 12 6 17 9 SW 1018,2 19 60 0,0
18.02.2019 13:00:00 11,8 3,7 13,8 9,1 3,2 4,2 8 5 13 7 S 1018,9 15 60 0,0
18.02.2019 12:00:00 9,7 2,1 10,6 7,1 2,6 4,2 6 4 11 6 WSW 1019,6 14 60 0,0
18.02.2019 11:00:00 7,2 2,0 8,2 4,0 2,3 4,2 10 5 11 6 WSW 1020,0 12 60 0,0
18.02.2019 10:00:00 4,9 1,8 5,0 0,6 2,4 4,2 6 4 10 5 SSW 1020,2 9 60 0,0
18.02.2019 09:00:00 1,9 0,3 1,4 0,5 2,5 4,2 5 3 7 4 S 1020,5 3,6 54 0,0
18.02.2019 08:00:00 0,8 0,1 -2,1 0,5 2,6 4,2 3 2 8 4 SSE 1020,2 4,5 0 0,0
18.02.2019 07:00:00 -0,8 -1,5 -3,0 0,6 2,8 4,2 3 2 6 4 SW 1020,2 3,2 0 0,0
18.02.2019 06:00:00 -0,1 -0,6 -3,5 0,7 2,9 4,2 2 1 5 3 SSE 1020,3 2,9 0 0,0
18.02.2019 05:00:00 0,4 0,1 -2,4 0,8 3,1 4,2 2 1 3 2 S 1020,6 3,0 0 0,0
18.02.2019 04:00:00 0,2 -0,2 -2,8 0,9 3,3 4,1 0 0 5 3 N 1020,9 2,3 0 0,0
18.02.2019 03:00:00 0,9 0,2 -1,5 1,0 3,5 4,1 3 2 5 3 E 1021,2 2,8 0 0,0
18.02.2019 02:00:00 1,6 1,1 -1,8 1,1 3,8 4,1 5 3 7 4 ESE 1021,5 3,3 0 0,0
18.02.2019 01:00:00 1,9 1,2 -1,1 1,1 4,1 4,1 6 3 7 4 E 1021,9 3,3 0 0,0
18.02.2019 00:00:00 1,8 1,0 -1,3 1,7 4,4 4,1 4 2 6 4 ESE 1022,2 3,1 0 0,0
17.02.2019 23:00:00 3,9 3,1 -1,0 2,3 4,8 4,1 3 2 8 4 E 1022,4 4,3 0 0,0
17.02.2019 22:00:00 3,8 2,7 0,0 3,0 5,1 4,1 6 4 8 4 E 1022,8 3,8 0 0,0
17.02.2019 21:00:00 4,3 3,2 1,2 3,7 5,5 4,1 5 3 9 5 ESE 1022,9 4,0 0 0,0
17.02.2019 20:00:00 5,2 3,9 0,9 4,6 5,8 4,1 5 3 10 6 SE 1022,9 5 0 0,0
17.02.2019 19:00:00 6,4 4,8 3,1 5,6 6,0 4,1 8 5 12 6 E 1023,0 8 0 0,0
17.02.2019 18:00:00 7,4 4,5 2,7 7,0 6,1 4,1 6 3 13 7 ESE 1022,8 11 0 0,0
17.02.2019 17:00:00 10,0 4,7 7,1 8,8 5,9 4,1 5 3 11 6 SE 1022,8 16 48 0,0
17.02.2019 16:00:00 11,7 5,1 11,5 10,3 5,5 4,1 6 4 12 7 SSE 1023,1 17 60 0,0
17.02.2019 15:00:00 12,3 5,5 13,4 10,8 4,8 4,1 6 3 14 7 WSW 1023,5 14 60 0,0
17.02.2019 14:00:00 11,7 5,5 13,3 10,2 4,1 4,1 4 2 11 6 WSW 1024,0 19 60 0,0
17.02.2019 13:00:00 11,0 5,8 13,1 8,5 3,5 4,1 8 5 13 7 W 1024,5 20 32 0,0
17.02.2019 12:00:00 9,0 5,3 10,0 5,9 3,1 4,1 8 4 11 6 SW 1025,2 13 0 0,0
17.02.2019 11:00:00 7,4 4,3 8,1 4,7 2,8 4,1 8 4 11 6 SSW 1025,3 13 0 0,0
17.02.2019 10:00:00 6,0 3,5 6,5 3,5 2,6 4,1 4 2 6 3 WSW 1025,4 12 0 0,0
17.02.2019 09:00:00 4,7 2,0 5,0 2,4 2,6 4,1 4 2 11 6 WSW 1025,3 12 0 0,0
17.02.2019 08:00:00 3,9 1,3 3,7 1,7 2,5 4,1 7 4 13 7 WSW 1025,1 11 0 0,0
17.02.2019 07:00:00 3,0 0,5 2,3 1,2 2,6 4,1 9 5 13 7 WSW 1024,8 13 0 0,0
17.02.2019 06:00:00 2,4 0,2 1,5 0,8 2,7 4,1 6 3 10 6 WSW 1024,9 16 0 0,0
17.02.2019 05:00:00 2,8 0,0 0,9 0,8 2,8 4,1 3 1 11 6 SSW 1024,8 16 0 0,0
17.02.2019 04:00:00 2,7 -0,3 0,7 0,7 3,0 4,1 4 2 9 5 SW 1024,6 17 0 0,0
17.02.2019 03:00:00 2,5 -0,2 0,8 0,7 3,3 4,1 7 4 12 6 WSW 1024,7 18 0 0,0
17.02.2019 02:00:00 2,8 -0,1 -0,6 1,0 3,5 4,1 5 3 13 7 SW 1024,5 20 0 0,0
17.02.2019 01:00:00 2,7 -0,2 -0,2 1,4 3,8 4,1 11 6 14 8 WSW 1024,5 20 0 0,0
17.02.2019 00:00:00 4,9 0,3 2,0 1,8 4,1 4,1 13 7 18 10 W 1024,3 23 0 0,0
16.02.2019 23:00:00 4,8 0,3 2,0 2,2 4,3 4,1 12 7 18 10 W 1024,3 24 0 0,0
16.02.2019 22:00:00 6,1 0,5 4,0 2,7 4,6 4,1 16 8 20 11 W 1024,1 28 0 0,0

tt = temperature
td = dewpoint
tt 5cm = temperature 5cm
tt -5cm = temperature -5cm
tt -20cm = temperature -20cm
tt -100cm = temperature -100cm
ff = wind speed
fx = gusts
dd = wind direction
ppp = reduced air pressure
vv = visibility
sd = sunshine duration
rr = precipitation

Next stations